Starlink 32501

operational
NORAD ID: 61890 Int'l Des: 2024-204 Owner: SPXS Country: US Constellation: starlink
LEOCIRCULAR

About Starlink 32501

Description loading...

Live Position

Loading 3D Globe...

Upcoming Passes

Altitude History

Altitude vs Time

uPlot chart will show altitude changes over time

Two-Line Element Set

1 61890U 24204S 25351.84516503 .00000976 00000-0 45082-4 0 9999
2 61890 53.1598 147.4596 0001052 77.6591 282.4527 15.30198228 62564
Epoch: Dec 17, 2025 • Age: 16 hours

Current Status

Altitude 475.1 km
Velocity 7.63 km/s
Sub-Earth Point 15.87°N, 111.41°W
Launch Date Nov 9, 2024
Age 1.1 years
Type internet

Technical Details

Classification Payload
Mass 730.00 kg
Dry Mass 700.00 kg
Total Mass 730.00 kg
Length 0.30 m
Diameter 4.10 m
Span 29.00 m
Shape Box + pan
Manufacturer SPXS
Bus Type Starlink V2M
Phase Status In Orbit
Owner/State SPXS/US

Large Constellations

Loading constellations...